Flag for Germany Weather past 2 weeks in Hanau, Hesse, Germany

Now
48 °F

Partly cloudy.


Feels Like: 44 °F
Forecast: 30 / 59 °F
Wind: 10 mph from North

Location: Frankfurt-M-Flughafen Airport

Current Time: Apr 28, 2015 at 3:28:58 AM

Latest Report: Apr 28, 2015 at 2:50 AM


Visibility: N/A

Pressure: 29.77 "Hg

Humidity: 71%

Dew point: 39 °F

Location of HanauLocation

Historic Weather in Hanau — Graph

°F

Hanau temperature yesterday

Maximum temperature yesterday: 57 °F (at 12:20 AM)
Minimum temperature yesterday: 46 °F (at 10:50 PM)
Average temperature yesterday: 54 °F

Past Weeks' High & Low Weather Summary

 TemperatureHumidityPressure
High77 °F (Apr 15, 3:50 PM)100% (Apr 23, 5:50 AM)30.45 "Hg (Apr 23, 5:50 AM)
Low34 °F (Apr 23, 5:50 AM)20% (Apr 19, 5:20 PM)29.56 "Hg (Apr 27, 3:50 AM)
Average55 °F58%30.08 "Hg
* Reported Apr 13 2:20 AM — Apr 28 2:20 AM, Hanau, Weather by CustomWeather, © 2015

Note: Actual official high and low records may vary slightly from our data, if they occured in-between our weather recording intervals... More about our weather records

Advertising

Hanau weather history for previous 24 hours

 ConditionsComfort  
Time TempWeatherWind HumidityBarometerVisibility
2:20 AM
Tue, Apr 28
46 °FPartly cloudy.13 mph76%29.77 "HgN/A
1:50 AM46 °FPassing clouds.14 mph76%29.77 "HgN/A
1:20 AM46 °FLight rain. Partly cloudy.14 mph76%29.74 "HgN/A
12:50 AM46 °FLight rain. Partly cloudy.14 mph76%29.74 "HgN/A
12:20 AM46 °FLight rain. Partly cloudy.15 mph82%29.74 "HgN/A
11:20 PM
Mon, Apr 27
46 °FPassing clouds.16 mph82%29.71 "HgN/A
10:50 PM46 °FPassing clouds.15 mph82%29.71 "HgN/A
10:20 PM48 °FPassing clouds.16 mph82%29.71 "HgN/A
9:50 PM48 °FPassing clouds.15 mph82%29.71 "HgN/A
9:20 PM48 °FLight rain. Broken clouds.15 mph82%29.71 "HgN/A
8:50 PM48 °FLight rain. Broken clouds.14 mph82%29.68 "HgN/A
8:20 PM48 °FLight rain. Broken clouds.18 mph87%29.68 "HgN/A
7:50 PM48 °FBroken clouds.17 mph82%29.68 "HgN/A
7:20 PM50 °FLight rain. More clouds than sun.16 mph82%29.65 "HgN/A
6:50 PM50 °FLight rain. More clouds than sun.13 mph88%29.65 "HgN/A
6:20 PM50 °FLight rain. Cloudy.14 mph88%29.65 "HgN/A
5:50 PM52 °FLight rain. More clouds than sun.17 mph88%29.65 "HgN/A
5:20 PM54 °FLight rain. More clouds than sun.15 mph82%29.62 "HgN/A
4:50 PM54 °FLight rain. More clouds than sun.13 mph88%29.62 "HgN/A
4:20 PM54 °FLight rain. Mostly cloudy.13 mph88%29.65 "HgN/A
3:50 PM54 °FRain. More clouds than sun.12 mph88%29.65 "HgN/A
3:20 PM55 °FLight rain. Mostly cloudy.14 mph88%29.62 "HgN/A
2:50 PM55 °FLight rain. Partly sunny.10 mph82%29.62 "HgN/A
2:20 PM55 °FLight rain. Broken clouds.13 mph82%29.62 "HgN/A
1:50 PM55 °FLight rain. Partly sunny.12 mph88%29.62 "HgN/A
1:20 PM57 °FLight rain. Partly sunny.9 mph82%29.62 "HgN/A
12:50 PM57 °FLight rain. Broken clouds.6 mph77%29.62 "HgN/A
12:20 PM57 °FLight rain. Broken clouds.12 mph82%29.62 "HgN/A
11:50 AM57 °FLight rain. Partly sunny.10 mph77%29.62 "HgN/A
11:20 AM57 °FPartly sunny.12 mph82%29.62 "HgN/A
10:50 AM57 °FPartly sunny.10 mph82%29.62 "HgN/A
10:20 AM57 °FLight rain. Partly sunny.8 mph82%29.59 "HgN/A
9:50 AM57 °FLight rain. Mostly cloudy.12 mph82%29.59 "HgN/A
9:20 AM55 °FLight rain. Partly sunny.8 mph94%29.59 "HgN/A
8:50 AM57 °FBroken clouds.7 mph88%29.59 "HgN/A
8:20 AM57 °FBroken clouds.6 mph94%29.56 "Hg5 mi
7:50 AM55 °FBroken clouds.6 mph100%29.56 "Hg4 mi
7:20 AM55 °FLight rain. Fog.5 mph100%29.56 "Hg3 mi
6:50 AM55 °FLight rain. Fog.3 mph94%29.56 "Hg3 mi
6:20 AM55 °FSprinkles. Fog.3 mph94%29.56 "Hg3 mi
5:50 AM55 °FSprinkles. Fog.3 mph94%29.56 "Hg3 mi
5:20 AM55 °FLight rain. Fog.2 mph94%29.56 "Hg3 mi
4:50 AM55 °FSprinkles. Partly cloudy.2 mph94%29.56 "Hg3 mi
4:20 AM55 °FPartly cloudy.3 mph94%29.56 "HgN/A
3:50 AM55 °FPassing clouds.3 mph94%29.56 "HgN/A
3:20 AM55 °FPassing clouds.No wind94%29.59 "HgN/A
Weather by CustomWeather, © 2015

See weather overviewHow to use our weather pages